1506650400.35,15660,15.94,74530.3,-5.21,-39.41,-39.53,0,*51
1506650401.61,15661,15.94,74528.3,-5.21,-39.23,-39.53,0,*54
1506650402.86,15662,15.94,74528.0,-5.19,-39.23,-39.47,0,*59
1506650404.12,15663,15.94,74528.3,-5.21,-39.03,-39.23,0,*53
1506650405.33,15664,15.94,74528.8,-5.21,-38.85,-39.09,0,*53
1506650406.61,15665,15.94,74526.0,-5.19,-39.23,-39.53,0,*5B
1506650407.85,15666,15.94,74530.3,-5.21,-38.91,-39.09,0,*54
1506650409.06,15667,15.94,74530.3,-5.21,-38.85,-39.09,0,*50
1506650410.29,15668,15.94,74528.5,-5.19,-38.73,-38.85,0,*58
1506650411.55,15669,15.94,74526.0,-5.19,-38.85,-39.03,0,*5F
1506650412.81,15670,15.94,74528.0,-5.19,-38.85,-39.03,0,*57
1506650414.07,15671,15.94,74528.8,-5.19,-38.85,-39.23,0,*54
1506650415.35,15672,15.94,74528.0,-5.19,-38.91,-39.23,0,*52
1506650416.61,15673,15.94,74530.8,-5.19,-38.85,-39.03,0,*54
1506650417.83,15674,15.94,74530.0,-5.19,-38.73,-38.73,0,*5C
1506650419.09,15675,15.94,74530.5,-5.19,-38.73,-38.91,0,*51
1506650420.33,15676,15.94,74528.8,-5.19,-38.85,-39.09,0,*5B
1506650421.58,15677,15.94,74528.0,-5.19,-38.91,-39.09,0,*5F
1506650422.84,15678,15.94,74528.5,-5.17,-38.29,-38.49,0,*58
1506650424.08,15679,15.94,74534.3,-5.17,-38.67,-38.85,0,*53
1506650425.33,15680,15.94,74528.0,-5.17,-38.79,-39.03,0,*55
1506650426.57,15681,15.94,74528.0,-5.17,-38.79,-38.85,0,*5B
1506650427.78,15682,15.94,74530.0,-5.13,-38.43,-38.61,0,*5F
1506650429.03,15683,15.94,74528.0,-5.17,-38.79,-39.03,0,*56
1506650430.29,15684,15.94,74528.3,-5.17,-38.79,-39.03,0,*51
1506650431.51,15685,15.94,74528.8,-5.17,-39.03,-39.35,0,*59
1506650432.77,15686,15.94,74530.0,-5.13,-38.91,-39.15,0,*56
1506650433.99,15687,15.94,74530.5,-5.17,-38.97,-39.23,0,*50
1506650435.25,15688,15.94,74528.0,-5.17,-38.91,-39.15,0,*5C
1506650436.51,15689,15.94,74528.3,-5.13,-38.79,-39.15,0,*5F
1506650437.77,15690,15.94,74528.8,-5.13,-38.79,-38.91,0,*5A
1506650439.0,15691,15.94,74530.5,-5.17,-38.79,-38.97,0,*59
1506650440.22,15692,15.94,74528.3,-5.17,-39.03,-39.35,0,*5F
1506650441.45,15693,15.94,74528.3,-5.13,-38.97,-39.29,0,*5B
1506650442.68,15694,15.94,74528.0,-5.13,-38.79,-39.09,0,*5E
1506650443.91,15695,15.94,74526.0,-5.17,-38.85,-39.03,0,*52
1506650445.17,15696,15.94,74528.8,-5.17,-38.79,-39.15,0,*55
1506650446.4,15697,15.94,74530.3,-5.17,-38.97,-39.15,0,*54
1506650447.66,15698,15.94,74524.8,-5.13,-38.91,-39.15,0,*59
1506650448.91,15699,15.94,74530.8,-5.17,-39.23,-39.41,0,*55
1506650450.17,15700,15.94,74528.3,-5.13,-39.15,-39.53,0,*56
1506650451.4,15701,15.94,74526.5,-5.17,-38.85,-39.23,0,*5C
1506650452.66,15702,15.94,74526.0,-5.13,-39.15,-39.41,0,*57
1506650453.85,15703,15.94,74530.3,-5.13,-38.97,-39.35,0,*5E
1506650455.08,15704,15.94,74526.3,-5.13,-38.91,-38.97,0,*56
1506650456.34,15705,15.94,74526.3,-5.13,-38.79,-38.91,0,*57
1506650457.54,15706,15.94,74528.3,-5.13,-38.55,-38.73,0,*56
1506650458.77,15707,15.94,74530.3,-5.17,-39.03,-39.35,0,*52
1506650459.97,15708,15.94,74530.8,-5.17,-39.35,-39.47,0,*5D
1506650461.17,15709,15.94,74530.3,-5.13,-39.09,-39.35,0,*52
1506650462.41,15710,15.94,74528.8,-5.13,-38.79,-39.09,0,*53
1506650463.61,15711,15.94,74524.8,-5.13,-38.61,-38.97,0,*5D
1506650464.87,15712,15.94,74530.8,-5.13,-38.91,-39.15,0,*5A
1506650466.13,15713,15.94,74528.0,-5.13,-38.79,-38.91,0,*50
1506650467.36,15714,15.94,74528.3,-5.17,-38.97,-39.15,0,*5E
1506650468.58,15715,15.94,74528.0,-5.13,-38.97,-39.15,0,*5B
1506650469.81,15716,15.94,74530.3,-5.13,-38.97,-39.15,0,*58
1506650471.04,15717,15.94,74530.0,-5.13,-38.73,-38.91,0,*5E
1506650472.3,15718,15.94,74526.8,-5.13,-38.79,-39.15,0,*56
1506650473.52,15719,15.94,74528.5,-5.17,-38.97,-39.23,0,*56
1506650474.76,15720,15.94,74526.3,-5.13,-38.91,-39.09,0,*56
1506650475.99,15721,15.94,74528.0,-5.13,-39.09,-39.29,0,*55
1506650477.23,15722,15.94,74530.3,-5.17,-38.85,-39.15,0,*58
1506650478.49,15723,15.94,74528.5,-5.13,-39.15,-39.41,0,*54
1506650479.71,15724,15.94,74528.5,-5.13,-38.73,-38.91,0,*5E
1506650480.95,15725,15.94,74530.3,-5.13,-38.79,-38.97,0,*53
1506650482.21,15726,15.94,74530.5,-5.13,-39.15,-39.41,0,*51
1506650483.46,15727,15.94,74528.5,-5.13,-39.15,-39.41,0,*50
1506650484.69,15728,15.94,74526.0,-5.17,-39.03,-39.35,0,*5F
1506650485.91,15729,15.94,74524.5,-5.13,-38.97,-39.29,0,*5B
1506650487.11,15730,15.94,74528.8,-5.17,-39.35,-39.47,0,*56
1506650488.36,15731,15.94,74524.3,-5.13,-39.29,-39.41,0,*58
1506650489.57,15732,15.94,74528.5,-5.13,-39.09,-39.35,0,*5A
1506650490.82,15733,15.94,74530.5,-5.17,-39.03,-39.41,0,*56
1506650492.02,15734,15.94,74530.8,-5.13,-39.09,-39.35,0,*5C
1506650493.25,15735,15.94,74530.0,-5.13,-38.91,-38.97,0,*54
1506650494.51,15736,15.94,74530.8,-5.13,-38.79,-38.91,0,*57
1506650495.77,15737,15.94,74530.0,-5.13,-38.91,-39.15,0,*5D
1506650496.99,15738,15.94,74526.5,-5.13,-38.97,-39.29,0,*5B
1506650498.23,15739,15.94,74528.3,-5.13,-38.91,-39.09,0,*5E
1506650499.48,15740,15.94,74528.3,-5.13,-38.91,-39.29,0,*52
1506650500.71,15741,15.94,74526.0,-5.13,-39.15,-39.35,0,*53
1506650501.93,15742,15.94,74528.3,-5.13,-38.91,-39.35,0,*5D
1506650503.17,15743,15.94,74530.0,-5.13,-38.85,-39.23,0,*5E
1506650504.37,15744,15.94,74526.0,-5.17,-39.35,-39.47,0,*55
1506650505.56,15745,15.94,74528.5,-5.17,-39.35,-39.47,0,*54
1506650506.82,15746,15.94,74528.5,-5.17,-39.15,-39.41,0,*53
1506650508.05,15747,15.94,74528.0,-5.17,-38.97,-39.15,0,*58
1506650509.31,15748,15.94,74528.0,-5.13,-39.15,-39.41,0,*59
1506650510.56,15749,15.94,74530.5,-5.13,-38.91,-39.15,0,*54
1506650511.79,15750,15.94,74528.5,-5.13,-38.97,-39.29,0,*55
1506650512.99,15751,15.94,74530.5,-5.13,-38.97,-39.09,0,*56
1506650514.19,15752,15.94,74528.5,-5.13,-38.97,-39.35,0,*5A
1506650515.45,15753,15.94,74530.5,-5.17,-39.15,-39.41,0,*57
1506650516.7,15754,15.94,74528.3,-5.13,-39.03,-39.23,0,*57
1506650517.93,15755,15.94,74528.3,-5.13,-38.91,-39.09,0,*54
1506650519.16,15756,15.94,74528.5,-5.13,-38.97,-39.29,0,*53
1506650520.39,15757,15.94,74530.3,-5.13,-38.79,-39.09,0,*50
1506650521.62,15758,15.94,74528.5,-5.13,-38.97,-39.15,0,*52
1506650522.85,15759,15.94,74534.0,-5.13,-38.97,-39.15,0,*53
1506650524.06,15760,15.94,74528.5,-5.11,-38.97,-39.35,0,*59
1506650525.3,15761,15.94,74530.5,-5.17,-39.35,-39.59,0,*5D
1506650526.52,15762,15.94,74528.8,-5.13,-38.97,-39.15,0,*5B
1506650527.75,15763,15.94,74526.5,-5.13,-38.97,-39.29,0,*55
1506650528.95,15764,15.88,74524.8,-5.13,-39.09,-39.35,0,*59
1506650530.21,15765,15.94,74528.8,-5.13,-38.91,-39.15,0,*5A
1506650531.44,15766,15.94,74528.0,-5.17,-39.35,-39.53,0,*50
1506650532.69,15767,15.94,74532.0,-5.13,-39.29,-39.41,0,*5B
1506650533.95,15768,15.94,74528.8,-5.17,-39.15,-39.15,0,*5E
1506650535.18,15769,15.94,74530.0,-5.13,-38.85,-39.15,0,*53
1506650536.41,15770,15.94,74528.5,-5.13,-38.97,-39.29,0,*57
1506650537.64,15771,15.94,74528.0,-5.13,-38.97,-39.29,0,*56
1506650538.86,15772,15.94,74530.5,-5.13,-38.97,-39.15,0,*5A
1506650540.12,15773,15.94,74530.0,-5.13,-39.15,-39.41,0,*51
1506650541.38,15774,15.94,74528.3,-5.13,-38.91,-39.15,0,*5A
1506650542.6,15775,15.94,74530.5,-5.13,-38.97,-39.15,0,*5D
1506650543.85,15776,15.94,74530.5,-5.17,-39.03,-39.23,0,*53
1506650545.09,15777,15.94,74532.5,-5.13,-38.91,-39.09,0,*54
1506650546.32,15778,15.88,74526.0,-5.13,-38.91,-39.09,0,*5B
1506650547.55,15779,15.94,74528.8,-5.17,-38.85,-39.03,0,*51
1506650548.81,15780,15.94,74528.0,-5.13,-38.79,-39.15,0,*57
1506650550.05,15781,15.88,74526.5,-5.17,-39.15,-39.47,0,*5E
1506650551.3,15782,15.94,74526.3,-5.13,-39.29,-39.41,0,*50
1506650552.52,15783,15.94,74528.0,-5.13,-38.97,-39.29,0,*5B
1506650553.75,15784,15.94,74528.0,-5.13,-39.09,-39.29,0,*5A
1506650555.0,15785,15.94,74528.5,-5.13,-39.29,-39.53,0,*54
1506650556.23,15786,15.94,74528.0,-5.13,-39.15,-39.35,0,*58
1506650557.49,15787,15.94,74530.8,-5.13,-39.41,-39.59,0,*52
1506650558.72,15788,15.88,74524.5,-5.17,-39.15,-39.35,0,*52
1506650559.96,15789,15.94,74528.5,-5.13,-38.91,-39.09,0,*55
1506650561.18,15790,15.94,74530.3,-5.17,-38.97,-39.29,0,*5D
1506650562.44,15791,15.94,74530.5,-5.13,-39.15,-39.41,0,*5D
1506650563.67,15792,15.94,74530.3,-5.17,-38.85,-39.23,0,*56
1506650564.9,15793,15.88,74524.0,-5.17,-38.97,-39.23,0,*54
1506650566.15,15794,15.94,74530.8,-5.13,-39.29,-39.41,0,*57
1506650567.37,15795,15.88,74526.8,-5.17,-39.03,-39.35,0,*59
1506650568.59,15796,15.94,74526.8,-5.13,-38.97,-39.29,0,*5F
1506650569.82,15797,15.94,74528.8,-5.17,-39.23,-39.47,0,*5C
1506650571.05,15798,15.94,74530.5,-5.13,-38.91,-39.09,0,*55
1506650572.28,15799,15.94,74528.8,-5.13,-38.97,-39.15,0,*5F
1506650573.5,15800,15.94,74528.3,-5.13,-38.91,-39.35,0,*54
1506650574.71,15801,15.94,74528.0,-5.13,-38.97,-39.09,0,*5C
1506650575.93,15802,15.94,74530.8,-5.13,-38.97,-39.29,0,*5D
1506650577.19,15803,15.94,74530.0,-5.13,-38.91,-39.15,0,*55
1506650578.44,15804,15.94,74528.3,-5.13,-38.91,-39.15,0,*52
1506650579.67,15805,15.88,74524.8,-5.13,-38.73,-38.79,0,*54
1506650580.93,15806,15.94,74530.8,-5.13,-38.91,-39.15,0,*50
1506650582.18,15807,15.94,74528.0,-5.17,-39.03,-39.23,0,*5A
1506650583.44,15808,15.94,74528.0,-5.13,-38.91,-39.29,0,*51
1506650584.63,15809,15.88,74528.5,-5.13,-38.97,-39.35,0,*5B
1506650585.83,15810,15.94,74528.0,-5.17,-39.35,-39.47,0,*5B
1506650587.08,15811,15.94,74532.5,-5.13,-39.29,-39.53,0,*56
1506650588.31,15812,15.94,74530.5,-5.13,-39.09,-39.29,0,*5A
1506650589.57,15813,15.94,74528.8,-5.13,-38.91,-39.15,0,*54
1506650590.79,15814,15.94,74530.8,-5.13,-38.97,-39.29,0,*5A
1506650592.0,15815,15.94,74530.3,-5.13,-39.09,-39.35,0,*50
1506650593.23,15816,15.94,74526.8,-5.13,-38.97,-39.15,0,*57
1506650594.46,15817,15.94,74530.0,-5.17,-39.15,-39.35,0,*5B
1506650595.69,15818,15.94,74528.3,-5.13,-38.91,-39.09,0,*52
1506650596.92,15819,15.94,74530.3,-5.13,-39.09,-39.41,0,*5F
1506650598.15,15820,15.94,74526.8,-5.13,-38.97,-39.29,0,*5D
1506650599.37,15821,15.94,74528.3,-5.17,-38.97,-39.29,0,*58
1506650600.56,15822,15.94,74530.5,-5.13,-38.97,-39.35,0,*52
1506650601.77,15823,15.88,74528.0,-5.13,-38.97,-39.09,0,*5C
1506650603.0,15824,15.94,74530.5,-5.17,-38.85,-39.23,0,*54
1506650604.26,15825,15.94,74528.5,-5.13,-38.79,-38.79,0,*5C
1506650605.54,15826,15.94,74530.5,-5.11,-38.91,-39.15,0,*50
1506650606.74,15827,15.94,74528.3,-5.13,-39.09,-39.35,0,*51
1506650607.97,15828,15.94,74528.8,-5.17,-39.41,-39.47,0,*53
1506650609.2,15829,15.94,74528.8,-5.13,-39.09,-39.41,0,*5C
1506650610.44,15830,15.94,74528.8,-5.13,-38.91,-39.09,0,*58
1506650611.69,15831,15.94,74532.0,-5.13,-38.91,-39.29,0,*5B
1506650612.92,15832,15.94,74530.0,-5.13,-38.61,-38.79,0,*53
1506650614.13,15833,15.94,74528.8,-5.13,-38.73,-38.97,0,*51
1506650615.36,15834,15.88,74524.5,-5.13,-38.91,-39.09,0,*5C
1506650616.58,15835,15.94,74528.3,-5.13,-38.97,-39.29,0,*59
1506650617.78,15836,15.88,74528.0,-5.13,-38.97,-39.35,0,*57
1506650619.04,15837,15.94,74530.5,-5.13,-38.79,-39.29,0,*5B
1506650620.27,15838,15.88,74526.3,-5.13,-38.91,-39.09,0,*50
1506650621.5,15839,15.88,74528.5,-5.13,-39.09,-39.29,0,*53
1506650622.74,15840,15.94,74530.0,-5.13,-38.79,-39.09,0,*59
1506650624.0,15841,15.94,74530.0,-5.13,-38.91,-39.15,0,*53
1506650625.25,15842,15.88,74528.3,-5.13,-39.03,-39.29,0,*55
1506650626.48,15843,15.94,74530.8,-5.13,-39.15,-39.35,0,*5E
1506650627.7,15844,15.94,74530.0,-5.17,-39.03,-39.35,0,*5A
1506650628.91,15845,15.94,74528.5,-5.13,-39.09,-39.35,0,*55
1506650630.14,15846,15.94,74530.0,-5.13,-38.97,-39.15,0,*52
1506650631.4,15847,15.94,74528.5,-5.11,-38.79,-39.09,0,*5C
1506650632.65,15848,15.94,74528.3,-5.11,-38.73,-38.91,0,*59
1506650633.91,15849,15.94,74534.3,-5.11,-38.79,-39.09,0,*52
1506650635.18,15850,15.94,74528.0,-5.11,-39.29,-39.41,0,*52
1506650636.43,15851,15.94,74530.0,-5.11,-39.15,-39.35,0,*5F
1506650637.69,15852,15.94,74530.8,-5.13,-38.79,-39.15,0,*57
1506650638.95,15853,15.88,74528.5,-5.13,-38.91,-39.15,0,*50
1506650640.14,15854,15.88,74526.8,-5.13,-38.97,-39.35,0,*53
1506650641.37,15855,15.88,74524.8,-5.13,-38.97,-39.15,0,*50
1506650642.57,15856,15.94,74528.8,-5.13,-38.97,-39.09,0,*5E
1506650643.8,15857,15.94,74532.5,-5.13,-39.15,-39.35,0,*5B
1506650645.08,15858,15.94,74528.3,-5.11,-39.29,-39.41,0,*5A
1506650646.36,15859,15.88,74530.3,-5.11,-39.15,-39.41,0,*54
1506650647.64,15860,15.94,74530.5,-5.11,-38.91,-39.15,0,*52
1506650648.89,15861,15.94,74530.3,-5.11,-38.79,-38.97,0,*5E
1506650650.18,15862,15.94,74530.3,-5.11,-39.15,-39.41,0,*5C
1506650651.43,15863,15.88,74528.0,-5.13,-39.15,-39.53,0,*5C
1506650652.67,15864,15.94,74530.5,-5.13,-38.79,-39.09,0,*5F
1506650653.9,15865,15.94,74528.8,-5.13,-39.09,-39.29,0,*5A
1506650655.11,15866,15.94,74528.8,-5.13,-39.09,-39.35,0,*54
1506650656.34,15867,15.94,74530.8,-5.13,-38.79,-38.97,0,*5A
1506650657.55,15868,15.94,74532.8,-5.13,-39.09,-39.35,0,*5A
1506650658.77,15869,15.94,74530.0,-5.13,-38.91,-39.35,0,*5B
1506650660.0,15870,15.88,74530.0,-5.17,-38.85,-39.03,0,*57
1506650661.24,15871,15.88,74526.3,-5.13,-38.79,-39.09,0,*5B
1506650662.49,15872,15.88,74528.5,-5.13,-38.91,-39.29,0,*5C
1506650663.75,15873,15.88,74528.8,-5.13,-39.41,-39.59,0,*56
1506650664.98,15874,15.94,74530.8,-5.13,-38.97,-39.29,0,*5C
1506650666.2,15875,15.94,74530.8,-5.13,-38.97,-39.29,0,*5D
1506650667.46,15876,15.94,74528.8,-5.11,-39.09,-39.29,0,*5A
1506650668.71,15877,15.88,74530.3,-5.11,-38.97,-39.15,0,*52
1506650669.93,15878,15.94,74530.0,-5.13,-39.29,-39.35,0,*59
1506650671.15,15879,15.88,74528.3,-5.11,-38.97,-39.35,0,*5E
1506650672.42,15880,15.88,74528.5,-5.11,-38.91,-39.29,0,*53
1506650673.71,15881,15.88,74528.3,-5.11,-38.79,-39.15,0,*5B
1506650674.95,15882,15.94,74530.3,-5.11,-38.97,-39.29,0,*57
1506650676.23,15883,15.94,74528.3,-5.11,-39.29,-39.53,0,*5F
1506650677.5,15884,15.94,74530.5,-5.11,-38.91,-39.29,0,*57
1506650678.75,15885,15.94,74530.8,-5.11,-38.97,-39.15,0,*5F
1506650679.95,15886,15.88,74524.5,-5.09,-39.09,-39.35,0,*51
1506650681.2,15887,15.88,74530.3,-5.11,-38.91,-39.35,0,*59
1506650682.48,15888,15.94,74528.3,-5.11,-38.91,-39.15,0,*54
1506650683.76,15889,15.94,74530.8,-5.11,-39.15,-39.41,0,*59
1506650685.01,15890,15.88,74528.5,-5.11,-39.35,-39.41,0,*53
1506650686.24,15891,15.94,74530.5,-5.11,-38.73,-38.97,0,*5B
1506650687.48,15892,15.94,74530.0,-5.11,-38.97,-39.29,0,*56
1506650688.76,15893,15.94,74530.5,-5.11,-39.15,-39.29,0,*5C
1506650690.05,15894,15.94,74530.0,-5.11,-39.15,-39.41,0,*55
1506650691.31,15895,15.94,74532.5,-5.11,-38.79,-39.09,0,*53
1506650692.56,15896,15.94,74530.5,-5.13,-39.15,-39.41,0,*55
1506650693.79,15897,15.94,74534.3,-5.13,-38.91,-38.97,0,*53
1506650695.08,15898,15.94,74530.8,-5.11,-39.15,-39.41,0,*59
1506650696.33,15899,15.94,74528.8,-5.11,-39.09,-39.41,0,*55
1506650697.59,15900,15.94,74530.0,-5.13,-38.91,-39.15,0,*57
1506650698.82,15901,15.94,74528.3,-5.13,-38.79,-39.09,0,*5D
1506650700.05,15902,15.94,74530.8,-5.13,-38.97,-39.15,0,*53
1506650701.28,15903,15.88,74524.5,-5.13,-38.61,-38.91,0,*56
1506650702.51,15904,15.94,74530.5,-5.13,-38.97,-39.29,0,*5A
1506650703.74,15905,15.94,74530.3,-5.11,-39.09,-39.35,0,*52
1506650704.96,15906,15.94,74534.5,-5.11,-38.97,-39.09,0,*58
1506650706.22,15907,15.88,74530.5,-5.11,-38.79,-39.09,0,*59
1506650707.48,15908,15.88,74526.3,-5.11,-39.35,-39.59,0,*5A
1506650708.73,15909,15.88,74526.3,-5.11,-39.35,-39.59,0,*5B
1506650710.01,15910,15.88,74526.8,-5.11,-39.29,-39.53,0,*54
1506650711.28,15911,15.88,74526.8,-5.11,-39.41,-39.53,0,*5B
1506650712.54,15912,15.94,74532.0,-5.11,-39.09,-39.41,0,*57
1506650713.77,15913,15.88,74528.5,-5.17,-38.85,-39.15,0,*54
1506650715.01,15914,15.94,74528.3,-5.13,-38.79,-39.09,0,*59
1506650716.2,15915,15.94,74528.8,-5.13,-38.97,-39.35,0,*57
1506650717.44,15916,15.88,74528.8,-5.13,-38.91,-39.09,0,*5D
1506650718.68,15917,15.94,74528.3,-5.11,-38.97,-39.29,0,*5A
1506650719.94,15918,15.94,74528.5,-5.11,-39.09,-39.41,0,*5D
1506650721.22,15919,15.88,74530.0,-5.11,-38.79,-38.91,0,*56
1506650722.45,15920,15.94,74528.0,-5.13,-39.09,-39.41,0,*54
1506650723.68,15921,15.88,74528.5,-5.13,-38.73,-38.91,0,*55
1506650724.94,15922,15.88,74526.8,-5.13,-38.79,-39.15,0,*51
1506650726.2,15923,15.94,74528.5,-5.13,-38.91,-39.15,0,*56
1506650727.43,15924,15.88,74526.0,-5.09,-38.97,-39.15,0,*5C
1506650728.65,15925,15.88,74528.3,-5.11,-39.09,-39.35,0,*50
1506650729.93,15926,15.94,74530.5,-5.11,-39.29,-39.41,0,*52
1506650731.2,15927,15.88,74528.3,-5.11,-39.41,-39.53,0,*5E
1506650732.48,15928,15.88,74524.3,-5.11,-39.41,-39.71,0,*51
1506650733.72,15929,15.94,74528.8,-5.13,-38.91,-39.09,0,*51
1506650734.95,15930,15.88,74528.0,-5.13,-38.73,-38.79,0,*53
1506650736.17,15931,15.94,74528.5,-5.13,-38.97,-39.29,0,*5C
1506650737.42,15932,15.88,74530.0,-5.13,-39.29,-39.41,0,*55
1506650738.65,15933,15.88,74528.8,-5.13,-38.91,-39.09,0,*5A
1506650739.91,15934,15.88,74530.3,-5.13,-38.79,-38.91,0,*5B
1506650741.15,15935,15.88,74528.5,-5.13,-39.15,-39.35,0,*5E
1506650742.38,15936,15.88,74526.5,-5.13,-38.79,-38.97,0,*5F
1506650743.59,15937,15.88,74526.0,-5.09,-38.85,-39.09,0,*50
1506650744.85,15938,15.88,74528.5,-5.11,-39.09,-39.29,0,*51
1506650746.11,15939,15.88,74528.3,-5.11,-38.61,-38.79,0,*5B
1506650747.36,15940,15.88,74528.5,-5.11,-38.91,-39.09,0,*5C
1506650748.59,15941,15.88,74530.8,-5.11,-39.09,-39.35,0,*52
1506650749.84,15942,15.94,74530.8,-5.11,-38.79,-38.97,0,*5E
1506650751.12,15943,15.94,74528.3,-5.11,-38.91,-39.15,0,*52
1506650752.4,15944,15.94,74530.3,-5.11,-38.91,-39.15,0,*55
1506650753.68,15945,15.94,74530.3,-5.11,-38.91,-39.15,0,*54
1506650754.93,15946,15.94,74530.3,-5.11,-38.73,-38.91,0,*56
1506650756.21,15947,15.88,74524.0,-5.11,-39.15,-39.41,0,*5A
1506650757.49,15948,15.94,74530.3,-5.11,-39.15,-39.41,0,*55
1506650758.73,15949,15.94,74530.3,-5.09,-38.55,-38.67,0,*5D
1506650759.96,15950,15.88,74528.0,-5.09,-38.55,-38.67,0,*55
1506650761.18,15951,15.88,74526.8,-5.11,-38.55,-38.73,0,*58
1506650762.42,15952,15.88,74526.3,-5.09,-38.85,-39.23,0,*5B
1506650763.69,15953,15.94,74528.3,-5.11,-38.91,-39.15,0,*53
1506650764.91,15954,15.88,74526.5,-5.09,-38.85,-39.09,0,*55
1506650766.15,15955,15.94,74530.3,-5.09,-38.67,-39.03,0,*52
1506650767.41,15956,15.94,74530.0,-5.11,-38.97,-39.15,0,*50
1506650768.66,15957,15.94,74528.3,-5.09,-39.03,-39.23,0,*51
1506650769.89,15958,15.88,74528.5,-5.09,-39.09,-39.29,0,*5E
1506650771.12,15959,15.88,74530.0,-5.09,-38.73,-39.03,0,*5B
1506650772.34,15960,15.88,74524.8,-5.09,-39.03,-39.35,0,*52
1506650773.55,15961,15.88,74528.0,-5.09,-38.85,-39.09,0,*53
1506650774.78,15962,15.88,74524.3,-5.09,-39.15,-39.35,0,*57
1506650776.01,15963,15.94,74528.0,-5.09,-38.73,-38.91,0,*58
1506650777.22,15964,15.88,74524.0,-5.09,-38.73,-39.09,0,*5F
1506650778.45,15965,15.94,74530.8,-5.09,-38.85,-39.23,0,*5F
1506650779.7,15966,15.94,74530.0,-5.11,-38.73,-38.91,0,*54
1506650780.96,15967,15.88,74528.0,-5.09,-38.91,-39.23,0,*58
1506650782.16,15968,15.88,74526.3,-5.09,-39.09,-39.35,0,*50
1506650783.43,15969,15.88,74524.3,-5.11,-39.29,-39.41,0,*59
1506650784.68,15970,15.94,74530.5,-5.09,-38.91,-39.23,0,*5E
1506650785.91,15971,15.88,74524.8,-5.09,-39.29,-39.47,0,*5F
1506650787.11,15972,15.88,74526.8,-5.09,-39.09,-39.47,0,*5E
1506650788.31,15973,15.88,74528.0,-5.09,-39.09,-39.35,0,*5A
1506650789.55,15974,15.88,74524.0,-5.09,-39.09,-39.29,0,*50
1506650790.77,15975,15.88,74526.0,-5.09,-39.23,-39.35,0,*54
1506650792.05,15976,15.88,74524.5,-5.11,-39.41,-39.53,0,*5A
1506650793.27,15977,15.88,74526.5,-5.11,-39.09,-39.35,0,*57
1506650794.52,15978,15.88,74528.5,-5.11,-39.29,-39.35,0,*5A
1506650795.77,15979,15.88,74526.5,-5.11,-39.15,-39.35,0,*54
1506650797.0,15980,15.94,74530.0,-5.09,-38.97,-39.15,0,*52
1506650798.25,15981,15.88,74526.0,-5.11,-38.97,-39.29,0,*55
1506650799.5,15982,15.88,74530.0,-5.09,-39.03,-39.23,0,*59
1506650800.7,15983,15.88,74526.3,-5.09,-39.09,-39.35,0,*55
1506650801.96,15984,15.88,74524.0,-5.09,-39.03,-39.23,0,*5F
1506650803.16,15985,15.88,74528.8,-5.09,-39.09,-39.35,0,*53
1506650804.41,15986,15.88,74526.3,-5.11,-39.35,-39.41,0,*55
1506650805.66,15987,15.88,74524.8,-5.11,-38.91,-39.09,0,*57
1506650806.9,15988,15.88,74528.3,-5.09,-38.91,-39.09,0,*51
1506650808.1,15989,15.88,74526.8,-5.09,-38.73,-39.09,0,*5C
1506650809.34,15990,15.88,74526.8,-5.09,-39.09,-39.41,0,*54
1506650810.56,15991,15.88,74530.5,-5.09,-39.23,-39.35,0,*5E
1506650811.76,15992,15.88,74526.8,-5.09,-39.35,-39.47,0,*5F
1506650813.02,15993,15.88,74528.3,-5.11,-39.09,-39.29,0,*50
1506650814.27,15994,15.88,74524.3,-5.11,-38.97,-39.15,0,*5E
1506650815.48,15995,15.88,74528.5,-5.09,-38.85,-39.09,0,*58
1506650816.7,15996,15.88,74528.5,-5.09,-39.35,-39.53,0,*5E
1506650817.94,15997,15.88,74526.3,-5.09,-39.09,-39.29,0,*5D
1506650819.18,15998,15.88,74524.8,-5.11,-38.97,-39.29,0,*5D
1506650820.46,15999,15.88,74526.0,-5.11,-39.41,-39.53,0,*5B
1506650821.67,16000,15.88,74528.3,-5.09,-38.73,-38.85,0,*52
1506650822.9,16001,15.88,74524.0,-5.09,-38.85,-39.23,0,*57
1506650824.12,16002,15.88,74528.0,-5.09,-39.23,-39.35,0,*5E
1506650825.33,16003,15.88,74526.8,-5.09,-38.73,-38.85,0,*51
1506650826.56,16004,15.88,74524.5,-5.09,-38.85,-39.03,0,*50
1506650827.79,16005,15.88,74526.5,-5.09,-39.35,-39.53,0,*5E
1506650829.01,16006,15.94,74528.3,-5.09,-39.23,-39.47,0,*5F
1506650830.23,16007,15.88,74524.5,-5.09,-38.97,-39.29,0,*58
1506650831.43,16008,15.88,74526.5,-5.09,-38.73,-38.73,0,*53
1506650832.64,16009,15.88,74524.5,-5.09,-38.73,-38.85,0,*5B
1506650833.86,16010,15.88,74524.3,-5.09,-38.73,-39.03,0,*5C
1506650835.12,16011,15.88,74526.8,-5.05,-39.03,-39.23,0,*55
1506650836.37,16012,15.88,74526.3,-5.07,-38.85,-39.23,0,*5B
1506650837.65,16013,15.88,74526.3,-5.07,-39.03,-39.23,0,*55
1506650838.9,16014,15.88,74524.0,-5.07,-39.29,-39.47,0,*58
1506650840.18,16015,15.88,74524.5,-5.07,-39.15,-39.23,0,*54
1506650841.43,16016,15.88,74524.3,-5.07,-38.67,-38.85,0,*5E
1506650842.71,16017,15.88,74526.8,-5.07,-38.79,-39.15,0,*58
1506650844.0,16018,15.88,74526.3,-5.07,-39.15,-39.29,0,*53
1506650845.27,16019,15.88,74524.5,-5.07,-39.03,-39.23,0,*5F
1506650846.52,16020,15.88,74528.3,-5.07,-38.67,-38.97,0,*58
1506650847.75,16021,15.88,74526.3,-5.05,-38.67,-38.85,0,*58
1506650849.01,16022,15.88,74524.5,-5.05,-39.03,-39.29,0,*5F
1506650850.26,16023,15.88,74526.8,-5.07,-38.67,-38.85,0,*58
1506650851.51,16024,15.88,74526.0,-5.07,-38.97,-39.23,0,*5D
1506650852.78,16025,15.88,74526.0,-5.07,-39.23,-39.41,0,*56
1506650854.01,16026,15.88,74526.5,-5.05,-39.29,-39.47,0,*5B
1506650855.26,16027,15.88,74526.0,-5.07,-38.97,-39.23,0,*5E
1506650856.54,16028,15.88,74526.8,-5.07,-39.15,-39.41,0,*5E
1506650857.8,16029,15.88,74526.5,-5.07,-38.85,-39.15,0,*56
1506650859.06,16030,15.88,74524.5,-5.05,-38.79,-39.03,0,*58
1506650860.31,16031,15.88,74526.3,-5.05,-38.79,-39.03,0,*59
1506650861.57,16032,15.88,74526.3,-5.05,-38.79,-39.03,0,*5A
1506650862.85,16033,15.88,74524.0,-5.07,-39.23,-39.41,0,*51
1506650864.1,16034,15.88,74520.0,-5.05,-39.03,-39.29,0,*58
1506650865.35,16035,15.88,74526.8,-5.07,-38.97,-39.15,0,*58
1506650866.61,16036,15.88,74524.8,-5.07,-38.85,-39.23,0,*5D
1506650867.89,16037,15.88,74520.5,-5.07,-38.67,-38.67,0,*51
1506650869.14,16038,15.88,74526.0,-5.07,-38.61,-38.79,0,*57
1506650870.37,16039,15.88,74526.8,-5.05,-38.97,-39.23,0,*53
1506650871.6,16040,15.88,74520.8,-5.05,-38.85,-39.03,0,*5C
1506650872.87,16041,15.88,74524.3,-5.05,-38.49,-38.67,0,*5E
1506650874.07,16042,15.88,74522.5,-5.05,-38.61,-38.97,0,*58
1506650875.3,16043,15.88,74526.3,-5.05,-39.23,-39.47,0,*52
1506650876.53,16044,15.88,74524.3,-5.05,-38.67,-38.85,0,*5B
1506650877.77,16045,15.88,74526.8,-5.05,-38.85,-39.15,0,*5E
1506650879.0,16046,15.88,74524.3,-5.03,-39.09,-39.35,0,*5C
1506650880.23,16047,15.88,74524.8,-5.03,-38.61,-38.73,0,*51
1506650881.51,16048,15.88,74526.3,-5.03,-39.15,-39.41,0,*5C
1506650882.75,16049,15.88,74524.0,-5.03,-38.97,-39.15,0,*57
1506650884.03,16050,15.88,74530.5,-5.03,-38.91,-39.15,0,*59
1506650885.26,16051,15.88,74522.5,-5.03,-38.73,-38.97,0,*5F
1506650886.48,16052,15.88,74526.5,-5.03,-38.73,-38.97,0,*5C
1506650887.74,16053,15.88,74524.8,-5.03,-39.09,-39.23,0,*5F
1506650888.99,16054,15.88,74520.8,-5.03,-38.61,-38.79,0,*59
1506650890.25,16055,15.88,74526.0,-5.03,-38.61,-38.91,0,*5E
1506650891.48,16056,15.88,74526.0,-5.01,-38.79,-39.09,0,*56
1506650892.73,16057,15.88,74526.3,-5.03,-38.97,-39.15,0,*58
1506650894.02,16058,15.88,74522.5,-5.03,-38.79,-39.15,0,*57
1506650895.26,16059,15.88,74524.8,-5.03,-39.35,-39.41,0,*5E